Home > Weather > Schweinfurt > Past weeks

Flag for Germany Weather for the Past 2 Weeks in Schweinfurt, Bavaria, Germany

Now
40 °F

Scattered clouds.


Feels Like: 37 °F
Forecast: 31 / 42 °F
Wind: 3 mph from North

Location: Illesheim

Current Time: Feb 12, 2016 at 11:22:03 AM

Latest Report: Feb 12, 2016 at 10:58 AM


Visibility: N/A

Pressure: 29.66 "Hg

Humidity: 73%

Dew point: 32 °F

Location of SchweinfurtLocation

Historic Weather in Schweinfurt — Graph

°F

Schweinfurt Temperature Yesterday

Maximum temperature yesterday: 39 °F (at 1:58 PM)
Minimum temperature yesterday: 36 °F (at 7:58 AM)
Average temperature yesterday: 37 °F

High & Low Weather Summary for the Past Weeks

 TemperatureHumidityPressure
High55 °F (Feb 6, 2:58 PM)100% (Feb 1, 9:04 AM)30.44 "Hg (Feb 1, 9:04 AM)
Low32 °F (Feb 5, 3:58 AM)58% (Feb 8, 1:58 PM)29.13 "Hg (Feb 9, 5:58 PM)
Average42 °F83%29.95 "Hg
* Reported Jan 28 9:58 AM — Feb 12 9:58 AM, Schweinfurt, Weather by CustomWeather, © 2016

Note: Actual official high and low records may vary slightly from our data, if they occured in-between our weather recording intervals... More about our weather records

Advertising

Schweinfurt Weather History for the Previous 24 Hours

 ConditionsComfort  
Time TempWeatherWind HumidityBarometerVisibility
9:58 AM
Fri, Feb 12
37 °FOvercast.5 mph81%29.68 "HgN/A
8:58 AM36 °FOvercast.3 mph81%29.71 "HgN/A
7:58 AM32 °FScattered clouds.1 mph90%29.72 "HgN/A
6:58 AM33 °FPassing clouds.No wind93%29.73 "HgN/A
5:58 AM32 °FOvercast.1 mph95%29.74 "HgN/A
4:58 AM32 °FPassing clouds.2 mph100%29.74 "HgN/A
3:58 AM34 °FPassing clouds.1 mph93%29.75 "HgN/A
3:03 AM34 °FOvercast.No wind93%29.71 "HgN/A
1:58 AM36 °FLight rain. Overcast.6 mph87%29.75 "HgN/A
12:58 AM35 °FOvercast.2 mph91%29.75 "HgN/A
11:58 PM
Thu, Feb 11
36 °FOvercast.2 mph87%29.75 "HgN/A
10:58 PM36 °FOvercast.3 mph88%29.72 "HgN/A
9:58 PM36 °FOvercast.2 mph87%29.72 "HgN/A
8:58 PM36 °FOvercast.2 mph93%29.72 "HgN/A
7:58 PM37 °FOvercast.3 mph88%29.72 "HgN/A
6:58 PM37 °FOvercast.5 mph88%29.73 "HgN/A
5:58 PM36 °FOvercast.2 mph93%29.72 "HgN/A
4:58 PM37 °FOvercast.7 mph91%29.72 "HgN/A
3:59 PM37 °FLight rain. Cloudy.10 mph87%29.72 "HgN/A
3:58 PM37 °FLight rain. Mostly cloudy.9 mph93%29.72 "HgN/A
2:58 PM39 °FCloudy.13 mph87%29.71 "HgN/A
1:58 PM39 °FOvercast.16 mph83%29.72 "HgN/A
12:58 PM39 °FMostly cloudy.17 mph81%29.73 "HgN/A
11:57 AM37 °FOvercast.15 mph87%29.73 "HgN/A
Weather by CustomWeather, © 2016

See weather overviewHow to use our weather pages